Showing default

IRIDIUM 103, 41918

Orbit data source: Space-Track

IRIDIUM 103, 41918 is a payload satellite owned by Iridium (US) in LEO that was launched on Sat, 14 Jan 2017 UTC via an FALCON 9 launch vehicle from the Air Force Western Test Range (AFWTR). Payload-class satellites include a variety of spacecraft equipped with specific instruments for various scientific and technological missions. These include communications satellites like Starlink; space stations such as the ISS; scientific satellites like the Hubble; Earth observation satellites from companies like Planet Labs, Umbra, and HawkEye 360; GPS; miniature CubeSats for education and research; and military/defense satellites.

Loading next visibility...
Identifier
41918, 2017-003B
Orbit
LEO
Country
Flag of USUS
Related business
Manufacturer
OATK SSG Gilbert
Mission
Operational Commercial Communications
Bus & Motor
ELITEBUS, Unknown motor
Mass
860 kg wet, 700 kg dry
Launch date (UTC)
2017-01-14 (9 years ago)
Launch vehicle
FALCON 9
Launch site
Air Force Western Test Range (AFWTR)
Object type
Payload
Rocket body
Debris
Shape & HBR
Trap Box + 2 Pan, 4.8 m
Radar Cross Section
10.154 m², Large (>1 m²)

Expand to show TLE details & history
Last TLE update: 10 hours ago

TLE from 10 hours ago
0 IRIDIUM 103
1 41918U 17003B   25302.42807764  .00000359  00000-0  12124-3 0  9994
2 41918  86.4028 184.8487 0002370  74.2137 285.9320 14.34216921460157
Epoch: 2025-10-29T10:16Z
TLE epoch observation values (Epoch: 2025-10-29T10:16:25.908Z)
Latitude
-0°
Longitude
-7.26061°
Altitude
780.256 km
Speed
7.464 km/s
True Right ascension
12h 19m 23s
True Declination
0° 00' 00"
Sunlit
Object was in daylight at epoch
Visualization orbit readout
Latitude
Unknown
Longitude
Unknown
Altitude
Unknown
Speed
Unknown
Apparent Right ascension
Unknown
Apparent Declination
Unknown
Sunlit
N/A
Visualization observer readout
Local Sidereal Time
16:01:37
Azimuth
Unknown
Elevation
Unknown
Doppler factor
Unknown
Orbital elements
Apogee altitude
776.329 km
Perigee altitude
772.939 km
Semi-major axis
7,152.771 km
Eccentricity
0.00024
Inclination
86.4028°
RAAN
184.8487°
Arg. of periapsis
74.2137°
True anomaly
285.90588°
Mean anomaly
285.932°
Eccentric anomaly
285.91894°
Mean motion
3.58783 °/min
Orbital period
100.34 mins
BSTAR
0.00012124
Loading maneuver chart data...
Computing Atmospheric mass density...
Loading historical data...
Loading historical data...
Loading historical data...
Loading historical data...
Loading historical data...
Loading historical data...
Loading historical data...

Documentation

Showing up to 5 results
|